Theta_e
323 325 325 326 326 326 326 326 327 327 327 326 326 327 327 325 322 321 322 323 323 323 323 322 321 322 323 323 322 323 323 323 323 324 324 324 324 324 324 324 324 325 326 326 326 323 320 319 315 311 312 314 316 316 316 322 325 325 329 329 326 329 330 331 326 320 323 322 320 319 320 320 317 316 314 319 327 329 335 339 337 336 335 332 331 333 334 335
322 324 325 326 326 326 326 326 326 326 327 327 326 327 328 328 325 323 323 323 324 323 323 323 322 323 323 323 323 323 323 323 324 324 324 325 324 324 324 324 323 323 325 325 323 318 317 316 312 311 313 314 316 316 317 321 321 327 332 327 328 335 332 327 324 320 321 319 319 320 319 318 319 316 316 323 325 329 342 339 336 341 337 332 332 334 335 334
320 323 324 325 326 325 326 326 326 325 325 326 326 327 328 328 327 325 324 324 324 324 324 323 323 323 323 324 324 324 324 324 325 325 324 324 324 324 323 324 324 323 324 324 322 317 314 314 312 312 314 314 316 318 321 322 319 328 330 324 332 339 329 320 319 319 319 319 319 319 317 318 319 315 316 323 323 328 344 343 342 343 337 335 333 332 334 333
317 322 324 324 325 326 326 326 326 325 324 325 325 326 328 328 328 327 326 325 324 324 324 323 323 323 323 324 325 325 324 325 326 325 323 324 324 324 324 324 324 324 324 324 324 320 314 312 312 314 314 314 318 319 321 322 319 322 324 328 336 329 322 318 317 319 318 317 319 319 317 317 316 315 315 320 322 324 330 336 344 343 336 336 334 332 333 333
313 320 323 324 325 326 326 326 325 325 324 325 325 325 327 328 328 327 327 326 325 325 324 324 323 323 323 323 325 325 324 327 328 324 323 324 324 324 324 324 324 324 323 324 324 322 317 314 314 315 314 314 317 318 321 323 319 318 321 331 331 319 316 318 317 317 317 316 318 318 317 316 315 314 315 318 323 323 322 326 335 337 335 335 334 332 332 332
310 317 322 323 324 325 326 326 325 325 324 324 324 325 326 327 328 327 327 327 326 325 324 324 324 323 323 323 324 324 324 326 325 324 325 323 324 324 324 324 324 324 324 323 320 320 320 320 321 318 312 313 315 315 319 319 317 318 320 324 322 317 316 318 317 316 316 317 317 317 317 315 315 314 313 317 322 321 317 321 330 335 333 334 333 332 333 332
309 313 319 323 324 324 325 326 325 325 324 324 324 324 326 327 328 328 327 327 326 325 325 324 324 324 324 323 324 324 324 325 321 322 326 324 324 325 324 325 324 325 326 321 318 321 322 325 327 319 311 313 314 314 316 317 317 318 320 320 317 317 317 317 317 316 316 317 317 316 316 315 317 316 312 315 318 317 314 316 328 334 331 333 333 332 333 332
308 311 316 321 324 324 325 325 325 325 324 325 325 324 325 326 327 328 327 328 326 326 325 325 325 324 324 324 324 326 326 325 321 321 325 325 325 326 325 326 325 326 326 321 319 321 322 325 325 317 312 314 314 313 315 316 317 317 320 320 316 316 317 316 316 317 316 316 315 315 316 316 316 315 314 316 316 315 317 320 329 334 331 333 334 333 332 331
307 310 314 319 323 324 324 325 325 325 325 325 325 324 325 326 327 328 328 327 326 326 325 324 325 324 325 324 324 327 326 325 322 321 324 326 326 326 326 326 326 327 325 322 319 318 323 326 321 315 313 312 311 312 314 316 318 318 318 319 317 316 315 314 314 316 316 315 314 316 317 315 314 313 315 317 313 316 324 329 334 334 333 335 334 333 331 331
307 309 313 317 322 324 323 324 324 324 325 324 324 324 325 326 327 328 328 327 326 326 325 325 325 324 325 324 325 327 325 323 322 321 324 326 326 326 326 326 326 326 323 320 317 316 323 324 316 313 312 312 312 312 313 315 318 319 317 317 316 315 314 314 315 315 316 315 314 317 316 314 314 313 316 316 312 320 331 334 335 335 335 335 333 333 332 331
306 309 312 316 322 324 323 324 323 323 325 323 322 323 324 325 326 327 328 327 326 325 325 325 324 324 324 324 326 326 323 321 322 322 323 325 326 326 326 326 325 325 323 319 318 317 320 319 313 312 312 312 312 312 313 315 316 317 316 315 314 314 314 314 315 315 315 314 315 317 315 314 315 314 319 317 311 323 335 335 334 336 335 334 334 333 331 331
306 309 313 315 320 323 323 324 323 323 324 322 322 323 323 325 326 327 327 326 326 325 325 324 324 324 324 325 326 324 321 320 321 322 324 325 326 326 325 325 324 324 323 320 318 318 318 317 313 313 313 312 312 312 313 313 314 315 316 315 314 314 315 315 315 316 315 314 316 317 314 314 316 315 318 315 313 323 333 335 334 335 334 333 334 332 332 331
306 308 313 315 318 322 323 324 323 324 324 323 323 323 323 324 326 327 326 325 325 325 324 324 324 323 325 326 324 322 321 318 318 321 323 325 325 324 323 322 322 322 323 322 319 317 317 315 313 313 312 311 312 312 312 312 313 314 314 315 316 314 315 316 314 315 315 314 315 315 315 318 318 317 315 312 313 323 331 334 333 333 333 333 332 332 332 330
308 308 313 316 318 322 323 323 323 324 324 324 323 323 323 324 326 325 324 324 325 325 324 324 324 323 326 324 319 320 321 317 317 318 319 323 322 320 319 320 319 319 320 320 319 317 316 314 313 313 311 311 312 311 311 313 313 314 313 315 318 317 318 317 314 315 314 312 314 312 316 321 318 317 317 312 313 322 330 331 329 330 330 330 332 332 332 331
309 309 313 317 319 321 322 322 323 324 324 323 322 324 324 324 326 325 323 324 324 324 323 323 323 323 325 322 315 318 321 319 318 317 316 319 320 319 317 317 317 317 317 317 316 315 315 313 312 312 312 312 311 310 312 314 314 314 315 317 316 316 318 318 314 316 315 312 313 311 315 320 317 318 316 311 312 318 324 324 322 323 323 325 328 329 331 331
309 310 313 317 319 320 321 322 324 324 324 323 323 324 323 324 326 324 324 323 323 323 322 321 320 321 325 321 315 317 319 320 320 318 318 317 317 318 316 315 315 315 315 315 314 314 313 312 312 311 312 312 310 310 313 316 316 314 318 321 318 315 317 316 314 316 317 314 312 312 316 318 316 315 312 311 312 314 317 318 318 318 318 319 323 326 329 329
309 310 313 317 319 320 319 322 324 323 324 323 324 323 321 323 325 324 324 323 321 321 320 319 317 320 322 315 315 319 318 319 320 320 321 319 316 316 315 314 314 314 315 315 314 314 314 312 311 311 311 311 311 312 313 316 318 315 319 324 320 316 316 316 316 316 317 315 313 313 315 317 316 314 312 311 312 313 314 316 317 317 316 316 319 324 326 328
309 310 313 316 319 321 320 322 323 323 324 323 322 323 323 324 324 322 320 319 318 318 318 317 317 323 323 313 314 319 317 317 319 320 322 320 316 315 314 314 315 314 317 318 315 317 317 313 311 311 312 312 311 312 314 318 322 319 319 321 319 316 315 316 316 315 315 314 314 314 313 316 318 316 314 312 311 313 314 313 314 315 316 316 319 324 326 327
309 311 314 317 319 321 322 322 323 323 323 322 321 322 322 321 320 318 316 316 318 320 320 318 318 324 321 314 314 315 315 317 318 319 321 319 315 314 313 314 315 315 319 322 319 319 317 313 311 311 312 312 311 311 315 324 326 323 323 323 320 317 316 318 318 316 315 314 315 315 314 315 316 316 315 313 312 313 312 311 310 312 314 316 318 322 325 327
309 311 315 318 319 322 323 322 323 323 323 321 320 319 319 318 317 316 315 317 318 318 318 318 319 319 315 313 313 313 314 316 317 318 318 317 313 313 312 312 314 317 321 322 320 319 315 313 313 311 312 312 311 312 317 324 322 319 323 324 320 317 317 319 319 316 314 315 315 314 314 314 315 317 315 312 312 313 313 312 312 312 313 315 318 321 325 326
310 312 316 319 320 322 322 322 323 323 322 320 319 319 319 319 320 318 317 318 314 312 315 316 316 316 313 312 312 313 314 315 316 315 315 314 312 312 312 311 314 318 319 318 317 316 314 314 313 311 312 312 312 314 316 316 315 316 320 321 319 318 317 315 316 316 313 314 315 313 313 314 315 315 314 311 312 314 313 313 313 312 311 313 315 319 322 322
310 313 317 319 320 322 322 322 322 322 321 319 319 320 320 318 318 318 317 317 313 311 315 316 314 314 313 311 311 313 315 315 315 313 313 312 311 312 312 311 313 317 317 316 318 317 315 314 313 310 312 312 312 314 314 313 313 315 317 320 321 320 317 313 313 316 314 314 316 315 314 314 315 314 313 312 312 313 312 312 312 312 312 312 313 316 318 319
312 314 318 320 321 321 322 322 322 321 319 318 318 318 318 315 315 317 316 315 313 311 313 314 314 314 313 312 312 313 315 316 315 314 312 311 312 312 312 311 312 314 315 316 317 318 316 315 312 310 310 310 311 311 312 312 312 315 317 319 321 319 317 315 313 315 314 313 315 318 317 315 315 314 316 314 312 312 313 312 312 312 313 312 312 313 315 317
314 316 319 321 321 321 321 321 321 319 318 318 317 316 316 315 316 317 314 313 313 311 311 312 312 313 313 313 312 313 315 316 315 314 312 311 312 312 311 311 311 313 314 314 315 315 316 315 312 311 310 309 310 311 311 311 312 315 317 318 320 319 318 317 315 315 313 312 313 316 317 320 319 315 317 316 311 312 312 313 313 312 314 315 313 312 314 316
315 318 320 321 321 321 320 320 318 317 317 317 315 314 315 315 316 316 312 314 315 310 310 312 311 312 313 312 312 314 315 314 314 314 311 311 311 311 311 311 311 313 313 313 314 314 314 312 310 311 311 310 310 310 312 312 312 314 318 319 318 318 319 319 317 315 314 314 315 313 314 326 329 317 314 313 312 314 312 313 314 312 314 317 317 316 316 317
318 320 320 321 321 320 319 319 317 317 317 316 314 313 315 316 315 314 312 315 315 310 311 314 312 311 312 313 312 314 316 314 312 312 311 311 311 311 311 311 312 312 313 313 313 314 314 311 310 311 311 311 312 311 312 313 312 313 318 319 316 316 319 320 317 317 317 317 315 312 314 323 326 318 315 313 312 315 314 314 315 313 313 317 319 320 321 320
320 320 321 321 320 319 319 318 317 317 317 316 314 313 316 315 313 313 314 318 316 311 311 313 311 312 313 314 312 313 317 314 311 312 311 312 311 311 312 311 311 312 312 313 314 315 313 311 312 312 312 313 312 312 313 313 313 317 320 318 316 316 319 319 316 321 323 317 315 317 317 316 316 316 317 313 311 313 313 314 316 314 313 317 319 321 325 324
320 320 321 320 320 319 318 317 316 317 317 315 313 314 315 313 313 314 316 320 317 311 311 310 309 311 314 314 313 313 315 313 314 313 310 311 311 310 311 311 312 313 311 313 316 316 314 313 314 313 313 312 310 312 316 312 313 321 320 316 316 315 318 318 317 324 324 315 316 320 315 312 319 324 318 312 312 314 313 314 315 314 314 317 321 324 328 329
320 320 320 319 319 319 318 318 317 317 316 314 313 314 313 312 313 314 317 319 313 309 311 310 310 312 314 314 314 313 312 313 315 313 310 311 311 309 311 310 311 313 312 313 316 317 315 313 313 314 313 312 313 318 320 313 313 320 318 318 319 318 319 318 320 325 319 313 319 321 314 311 321 330 320 310 313 317 315 313 312 313 314 318 323 327 331 330
320 320 319 318 318 317 317 317 316 315 315 313 313 313 312 314 315 317 319 317 312 310 310 310 311 313 314 315 315 313 312 313 314 312 311 312 311 310 311 311 312 313 313 313 315 318 316 311 312 315 314 314 317 321 322 320 317 317 320 320 319 322 327 329 333 329 315 317 328 325 317 311 315 326 322 313 316 318 316 314 313 313 315 319 323 326 329 329
320 319 318 317 316 316 316 315 314 314 314 313 313 311 312 316 316 318 319 315 312 311 309 310 312 313 313 315 316 314 313 313 312 312 312 312 312 311 311 313 314 314 315 314 315 317 315 314 315 317 316 314 317 318 318 319 316 318 326 322 317 325 331 332 332 324 315 323 328 322 316 312 314 323 321 316 317 316 315 316 316 315 315 319 323 322 324 326
318 319 318 317 316 316 316 314 313 314 314 313 312 312 314 317 317 317 316 313 313 311 310 311 312 312 313 313 314 314 314 314 312 312 313 312 313 312 311 313 313 315 316 315 316 315 316 320 319 318 316 313 317 319 315 315 316 317 323 319 317 324 322 321 323 320 320 322 317 314 314 314 316 319 318 318 317 315 314 312 314 316 318 321 322 322 321 322
317 318 317 316 315 315 315 314 313 314 313 312 313 313 315 318 319 316 312 313 314 311 310 312 312 312 312 312 312 312 313 313 312 312 313 313 313 312 313 313 313 318 318 315 316 315 318 323 319 318 317 312 316 318 316 319 317 314 316 315 320 324 317 315 319 318 320 320 313 311 313 317 319 316 315 317 315 314 315 314 313 315 318 321 320 321 320 319
318 317 315 315 315 315 314 314 314 314 312 312 314 315 316 319 318 314 312 313 312 310 310 311 312 312 312 312 313 312 313 313 311 312 312 313 313 312 313 313 312 318 319 315 315 315 317 320 316 316 316 312 314 315 317 323 319 315 318 317 322 328 323 319 321 321 322 321 315 310 314 322 321 314 313 314 312 313 318 319 316 315 318 319 319 320 320 319
317 315 314 314 314 314 314 313 314 313 312 313 314 315 317 319 316 314 313 312 310 311 311 311 312 313 312 313 313 312 314 314 312 312 313 313 313 312 312 312 311 315 316 315 315 315 316 316 316 318 315 312 315 314 316 320 318 318 318 318 320 323 327 324 320 326 327 320 316 313 318 326 319 311 312 312 313 316 319 320 318 320 320 320 322 322 320 320
314 313 313 313 313 313 313 313 313 312 312 314 315 315 317 317 314 313 312 310 310 311 312 312 313 313 313 313 313 313 314 314 312 313 313 313 313 312 312 312 311 312 313 314 315 316 317 316 317 319 314 311 313 314 315 317 317 317 315 319 320 317 325 323 313 319 321 316 318 315 317 323 316 311 314 312 314 317 317 318 319 321 319 320 324 321 318 319
312 312 313 313 313 313 313 313 313 312 312 313 315 315 315 313 313 313 311 310 311 311 312 314 313 312 313 314 314 315 315 314 313 313 314 313 313 313 312 312 312 311 312 314 314 316 318 318 317 317 314 313 312 312 315 315 316 317 315 318 317 312 321 323 314 319 318 317 323 316 313 320 315 316 320 313 315 319 316 317 318 317 318 319 321 318 316 317
312 313 313 312 312 313 313 313 313 312 312 313 314 316 316 313 312 311 310 310 311 312 313 314 313 312 312 314 314 314 314 314 312 313 314 313 315 314 311 312 312 311 312 314 314 316 319 320 318 314 315 318 317 316 316 313 312 316 318 317 317 316 319 318 315 319 316 314 323 317 313 319 316 318 323 314 316 320 314 315 318 317 318 319 318 318 316 314
313 313 313 312 312 313 313 313 313 313 313 313 314 316 318 315 312 310 310 311 311 312 313 314 313 312 312 313 314 313 313 313 312 313 313 313 316 315 311 312 313 311 312 312 315 316 318 321 320 315 313 316 319 318 317 316 313 314 314 312 317 322 322 318 316 319 317 315 321 317 312 320 321 317 321 318 318 317 312 315 318 317 317 316 316 317 315 314
314 314 313 312 312 312 312 313 314 314 314 313 313 315 318 315 312 310 311 312 312 313 314 313 313 313 313 313 313 313 314 314 312 312 314 313 313 314 312 311 312 312 311 311 315 315 314 319 321 317 313 314 317 317 317 317 316 315 315 313 314 316 317 319 317 318 321 321 323 317 314 328 328 316 317 318 316 314 311 314 315 313 314 314 313 315 314 313
314 314 313 311 311 312 312 313 315 315 314 313 311 314 316 314 311 310 312 313 312 312 313 313 313 312 313 313 313 313 314 315 312 312 315 313 312 314 313 311 312 312 311 311 313 315 315 316 319 318 316 317 319 316 314 315 315 315 315 315 316 316 317 318 315 316 318 318 323 320 317 330 327 313 314 316 312 310 310 312 313 312 312 313 312 313 313 312
314 314 313 311 312 312 313 315 316 314 314 313 312 314 316 313 310 310 312 312 314 316 313 311 312 312 312 313 313 313 314 315 312 313 316 314 313 316 315 312 313 311 312 314 314 317 320 321 322 320 318 319 319 315 311 312 314 314 313 315 318 318 319 318 318 319 315 312 317 318 316 327 328 315 313 316 314 312 310 310 311 311 311 312 313 313 311 311
314 313 312 312 312 312 314 316 316 314 313 312 312 314 316 312 309 310 312 311 314 316 313 311 311 311 312 312 313 314 313 313 313 314 316 315 313 316 316 312 313 311 312 316 315 316 320 320 321 319 317 319 320 317 313 311 313 315 315 316 317 317 321 327 327 324 316 313 315 313 313 328 335 322 317 317 316 315 312 309 309 311 311 311 313 313 311 310
313 313 312 311 311 313 315 316 316 314 313 312 312 315 316 312 310 310 311 312 314 313 311 311 312 311 313 312 312 314 313 314 314 314 317 316 313 317 317 312 312 313 311 315 315 315 318 319 319 318 318 318 320 318 315 313 313 318 319 317 317 320 320 321 320 315 314 319 320 315 318 327 330 323 318 316 314 315 316 310 309 312 313 312 313 312 310 310
313 314 313 311 310 313 315 315 314 314 313 312 313 316 316 315 316 314 310 313 319 317 312 313 313 313 313 313 313 313 313 316 316 315 318 317 312 315 316 313 313 312 312 317 316 316 322 322 318 318 318 317 317 316 316 316 315 317 318 315 318 321 317 316 318 314 316 319 316 315 321 323 322 320 316 313 312 315 317 311 309 312 312 312 312 311 310 310
315 314 314 312 312 313 314 314 314 313 312 313 314 316 316 315 318 318 313 314 319 321 318 315 314 314 313 313 313 313 314 317 318 317 317 317 315 315 315 314 313 312 317 322 318 318 326 322 316 316 316 315 316 317 319 320 317 316 319 318 319 319 316 319 322 319 321 321 316 318 320 316 315 317 317 319 318 318 319 316 312 312 312 312 312 311 310 309
315 314 314 314 314 313 313 314 314 311 311 313 314 315 316 316 317 315 314 315 317 319 318 314 314 314 313 314 314 314 315 316 318 317 316 318 317 313 312 314 314 315 320 320 316 319 324 320 315 316 315 314 316 317 318 319 316 316 318 319 320 319 317 319 319 317 321 320 316 319 320 314 313 316 319 324 321 319 322 319 313 311 312 313 313 311 310 309
312 313 314 314 314 314 314 314 314 311 312 314 315 315 316 317 315 314 316 317 316 317 317 314 314 314 314 314 314 314 315 316 317 316 315 318 317 312 311 314 314 316 319 315 314 318 320 318 317 315 315 317 317 315 316 317 315 315 316 316 317 318 317 317 316 316 318 316 313 315 317 315 315 317 320 323 321 317 316 315 313 313 314 313 313 313 311 310
310 312 312 312 313 314 314 314 313 311 312 315 316 316 316 316 315 316 318 317 315 316 317 314 314 314 313 314 314 314 315 315 315 315 315 316 316 314 314 314 313 314 316 314 314 316 317 319 319 316 314 318 320 317 316 316 315 315 316 316 316 316 317 316 315 315 316 316 315 314 316 316 315 317 318 319 317 312 311 314 315 316 316 314 313 313 312 310
309 310 311 313 313 312 314 313 312 311 312 314 315 315 315 316 316 318 320 318 314 316 316 314 314 314 314 314 314 314 314 314 315 315 314 314 314 314 314 315 315 314 314 314 312 312 314 317 317 316 314 315 319 319 316 315 316 316 317 317 316 316 316 315 315 315 314 315 315 314 316 316 314 315 316 316 313 309 310 317 317 314 315 314 313 313 312 311
301 300 305 312 313 311 313 312 311 311 313 314 314 314 315 315 316 319 320 319 318 318 317 315 314 314 313 314 314 314 314 315 315 313 313 314 314 315 318 317 314 314 315 316 314 314 318 317 315 317 316 314 316 318 316 315 314 315 317 318 317 316 315 314 315 315 314 315 315 316 316 313 313 316 317 316 314 311 313 317 315 313 314 314 314 314 312 311
299 301 306 312 313 312 313 313 311 312 313 314 314 314 315 316 317 318 318 318 321 321 318 316 314 313 313 314 314 315 317 318 316 313 314 314 314 319 322 317 314 313 315 317 317 320 323 320 318 319 317 314 314 316 317 316 316 316 317 316 315 315 314 314 315 316 315 314 315 315 313 312 316 320 317 315 314 315 317 317 312 312 314 313 313 314 312 311
Wind_Speed
21 24 27 29 32 36 39 41 41 40 39 41 42 42 42 41 41 40 38 35 32 30 29 28 27 24 22 21 21 19 18 17 14 15 13 14 18 14 10 7 3 5 4 2 6 6 8 10 16 24 20 11 4 2 3 1 1 3 3 2 2 3 4 4 7 7 5 6 7 7 5 8 6 3 2 4 8 5 4 5 2 5 4 5 9 25 35 30
22 25 28 29 30 34 38 41 41 41 39 40 42 41 42 41 40 40 39 36 33 31 30 29 28 25 23 21 20 18 17 15 12 12 15 16 18 19 16 10 3 2 4 1 4 7 7 6 12 17 10 4 4 3 2 2 1 3 3 3 4 5 5 5 7 7 5 8 9 7 7 8 8 6 4 4 2 3 6 5 4 6 6 7 16 29 31 27
22 24 26 27 29 32 37 39 40 43 40 38 41 41 42 41 40 40 39 37 34 32 31 30 29 27 24 22 19 19 15 10 6 10 18 19 18 21 20 17 9 4 5 3 4 6 7 4 10 11 4 3 3 2 2 2 1 2 3 2 6 6 5 4 6 8 6 8 11 8 6 6 7 6 4 6 6 4 5 3 2 4 5 9 15 24 27 25
20 22 24 26 29 32 35 38 39 43 42 38 40 41 41 41 40 40 38 38 36 33 32 31 31 28 25 23 20 19 13 5 4 10 19 22 20 21 21 23 17 8 7 5 3 3 5 6 10 8 3 3 4 2 1 3 1 1 3 4 6 4 4 5 4 5 5 7 12 8 5 6 6 3 4 9 7 2 6 7 7 10 12 11 12 19 24 23
18 21 24 26 30 32 33 37 39 41 42 40 41 41 40 41 40 40 38 37 36 34 33 32 31 29 27 23 20 18 12 2 5 9 18 22 22 22 21 24 21 13 9 7 5 1 5 8 10 5 2 2 4 2 3 4 2 1 3 5 5 3 3 5 2 2 4 4 7 9 7 6 4 2 5 11 7 5 7 8 9 13 16 15 15 18 20 21
17 21 24 27 30 33 33 37 39 40 41 40 40 40 40 41 41 41 39 38 37 35 34 32 31 29 27 24 22 19 11 3 2 8 16 20 23 23 22 23 21 17 11 8 6 4 4 7 8 3 2 2 4 3 5 4 2 2 4 4 4 3 3 3 1 2 5 7 7 8 7 6 6 3 6 10 7 6 6 8 10 12 17 20 20 18 16 17
17 20 24 29 31 33 33 37 40 41 40 39 39 40 40 40 41 41 40 39 37 36 35 32 31 29 27 25 21 14 8 5 1 9 18 20 23 24 23 24 22 19 14 10 10 7 4 5 4 1 3 4 3 5 6 4 1 4 5 4 3 3 4 3 2 2 5 8 7 6 6 8 8 6 4 6 7 5 2 8 13 14 19 21 18 16 16 19
18 19 23 29 32 33 34 38 41 41 39 39 38 39 40 40 40 40 40 39 37 36 35 33 32 29 28 26 15 7 5 8 5 7 18 23 23 26 25 23 22 21 17 15 12 9 5 4 2 1 2 4 3 4 4 3 2 4 6 4 1 1 3 3 3 3 5 5 4 6 7 7 6 5 5 6 7 3 1 8 13 14 16 16 15 15 16 18
19 19 22 28 32 34 36 38 41 41 39 38 38 38 39 40 40 39 39 40 38 37 35 34 33 30 30 23 10 5 7 12 11 5 13 24 25 27 27 23 23 23 20 16 15 15 8 4 4 4 2 5 4 6 4 3 4 6 7 3 2 1 3 1 3 5 5 3 4 8 5 2 2 1 3 6 6 1 3 10 12 13 13 12 12 13 16 16
20 20 23 28 33 36 38 40 41 40 39 39 38 37 38 40 40 39 39 40 38 37 36 35 33 32 30 19 8 6 7 13 15 7 11 22 25 25 25 24 25 24 20 16 17 17 9 7 6 3 2 5 5 7 4 4 4 6 5 2 3 1 2 1 1 3 3 1 3 7 5 0 3 0 3 6 5 4 8 11 11 13 13 12 11 11 16 17
22 21 25 29 34 39 40 41 43 42 40 39 38 38 38 40 41 40 40 40 38 37 36 35 35 35 27 16 9 6 6 13 15 10 12 20 25 25 24 25 26 26 23 16 17 18 14 11 5 3 2 3 4 7 5 6 3 3 6 4 2 3 3 1 2 4 2 2 3 7 5 2 5 0 6 6 5 6 10 11 11 12 12 11 11 10 13 16
24 23 26 31 34 39 41 43 45 42 40 39 39 39 39 40 41 41 41 41 38 37 37 36 37 34 23 10 7 6 9 15 15 14 15 18 24 25 23 24 25 27 25 18 15 19 17 11 6 0 3 1 4 5 4 4 1 3 7 4 2 4 2 3 3 3 2 3 4 6 4 3 2 5 7 4 7 6 9 12 10 11 10 9 10 8 9 14
24 24 27 32 34 36 41 44 45 42 40 40 40 40 40 41 42 43 43 41 38 37 37 37 36 32 20 6 4 9 14 17 18 17 18 21 23 22 20 21 23 24 24 21 18 19 18 11 6 4 5 2 4 6 5 4 1 4 5 4 1 3 3 5 2 2 3 2 2 3 2 5 7 9 6 2 8 8 8 10 9 9 8 8 8 7 8 12
24 25 27 32 35 38 42 45 44 42 41 41 40 41 42 42 43 44 43 41 38 36 36 37 34 26 14 3 4 10 16 20 21 21 21 23 23 18 17 17 18 19 17 16 16 16 17 11 5 5 6 4 5 9 9 5 2 4 3 2 3 3 4 5 2 3 5 1 1 5 3 5 8 9 7 4 8 10 10 9 9 8 7 8 8 8 8 11
25 25 29 34 38 41 44 46 45 42 41 41 42 41 42 43 44 44 42 40 38 38 38 35 30 20 7 1 4 10 17 20 20 22 22 24 25 18 14 15 13 14 12 11 12 12 12 8 4 4 5 4 5 8 8 4 2 2 4 3 2 5 4 4 2 6 6 1 2 6 2 5 6 8 6 6 7 8 10 9 8 8 8 8 7 8 8 9
27 26 30 37 41 43 45 46 44 42 42 42 42 41 42 42 43 43 41 39 38 39 35 24 20 16 5 2 5 10 13 14 19 22 19 21 23 18 18 16 10 10 9 8 9 8 7 5 3 4 5 5 5 6 5 3 3 3 3 4 4 6 3 2 2 4 5 2 1 2 3 3 4 6 3 6 7 7 8 8 9 8 9 8 7 8 7 7
30 28 32 39 42 44 47 46 44 43 42 43 42 41 41 40 40 39 38 40 38 35 29 17 16 13 3 4 6 8 9 11 19 21 19 17 16 19 21 12 8 11 9 7 6 4 5 4 2 3 5 5 4 5 6 6 6 3 1 4 3 5 5 3 2 4 3 3 3 3 3 4 5 5 3 5 7 7 7 8 9 9 8 8 7 7 7 8
33 29 34 42 43 47 50 47 45 44 43 44 42 41 43 43 42 38 38 40 33 28 22 14 16 8 3 7 6 7 12 15 19 21 21 16 14 22 19 9 10 13 9 5 4 4 3 1 1 5 5 6 6 5 7 7 5 5 3 4 2 2 5 4 3 4 4 3 4 5 3 8 8 6 5 5 5 7 9 8 8 8 8 7 7 7 8 9
35 30 37 46 45 48 52 49 46 45 46 44 42 42 43 41 35 31 33 33 21 13 10 9 13 5 3 11 7 7 17 20 18 19 23 18 17 23 17 11 11 11 9 5 3 5 5 1 4 8 8 8 8 6 7 7 6 8 5 5 5 4 4 5 4 4 4 4 4 7 7 8 8 6 6 6 4 7 8 6 5 7 7 7 7 7 8 9
36 34 41 48 47 47 50 51 47 49 49 46 46 38 27 22 15 11 14 17 10 3 6 12 10 2 5 11 12 14 17 19 14 14 24 24 21 21 14 10 8 5 8 7 5 5 5 6 9 9 9 8 7 7 8 7 6 7 6 5 6 7 5 5 3 5 1 5 6 7 7 7 7 8 7 4 3 5 7 7 7 7 6 7 8 8 9 9
38 38 45 50 51 48 50 53 49 52 54 56 52 24 11 15 10 10 12 9 4 5 8 16 7 5 6 10 18 22 14 11 9 12 25 27 21 17 9 9 8 4 6 8 7 5 5 9 11 10 8 7 7 8 8 6 4 5 5 6 5 6 5 3 2 4 2 3 4 2 4 8 9 9 6 2 4 7 9 9 9 9 8 7 8 9 10 8
40 43 50 52 53 53 54 54 53 56 56 55 41 13 12 14 6 19 20 9 4 7 8 17 7 6 7 9 18 20 11 8 9 12 22 22 15 12 8 9 9 6 8 8 6 6 8 11 13 9 7 7 7 8 9 7 5 4 3 6 5 4 3 1 2 5 3 2 4 1 5 9 9 7 6 5 7 8 9 11 11 10 9 8 9 10 9 8
44 49 55 54 56 59 58 58 59 59 53 44 27 11 15 12 14 32 24 8 5 6 4 11 5 4 6 8 13 14 11 11 12 13 19 17 9 9 11 10 10 9 11 12 10 9 9 10 12 8 6 8 8 7 9 6 4 4 3 5 4 4 4 1 3 3 3 1 1 3 4 6 6 4 7 9 8 6 7 10 9 8 9 10 10 10 10 10
50 55 59 58 59 59 59 62 59 54 51 40 22 14 19 24 36 42 21 6 4 4 3 6 4 3 5 6 10 12 10 9 10 14 20 17 9 8 11 12 12 11 11 16 15 10 8 7 8 8 7 9 9 8 9 6 4 4 4 5 4 5 5 2 3 2 2 2 2 5 2 5 5 4 8 7 4 5 6 7 9 9 8 7 6 7 9 11
56 61 62 61 59 59 62 57 46 45 44 30 19 21 29 35 41 38 18 5 2 3 4 6 0 4 6 6 9 8 6 5 7 12 17 16 13 10 8 9 10 11 15 18 15 9 10 9 7 10 9 8 9 9 9 8 5 5 5 7 7 9 7 4 7 6 3 2 2 3 1 5 5 5 10 5 2 6 5 6 10 10 8 6 6 7 8 9
62 63 64 64 60 63 56 34 32 44 33 17 22 32 35 39 37 28 14 4 2 2 6 9 4 8 11 5 7 6 5 4 4 10 15 13 13 11 8 7 6 9 15 14 9 5 8 9 5 10 12 9 9 8 8 8 6 4 5 8 9 9 8 8 9 6 3 4 3 2 4 5 5 4 9 5 5 9 5 6 10 9 8 7 7 7 7 8
66 64 66 65 64 65 40 16 31 41 21 17 34 40 38 41 32 16 7 2 3 3 4 3 3 11 14 4 8 9 5 5 6 9 14 10 10 10 8 9 7 8 11 9 6 4 8 10 5 8 10 9 8 7 8 9 8 5 5 6 9 9 10 10 10 5 3 3 2 3 4 3 4 5 6 2 4 9 8 9 10 8 8 8 7 7 7 8
67 66 65 65 71 68 40 29 38 27 18 31 42 42 41 39 24 7 4 4 3 4 4 1 1 11 10 5 6 4 1 7 8 9 12 8 8 7 8 11 11 12 12 10 7 2 6 10 7 8 8 7 9 7 8 10 7 5 4 6 7 9 10 10 9 4 2 3 2 3 3 3 5 6 5 1 2 7 9 12 12 10 9 8 8 8 7 7
68 67 64 69 73 59 40 42 37 19 28 44 42 41 39 27 14 4 1 5 2 4 6 5 6 9 6 6 5 2 2 7 5 5 6 5 6 3 5 10 11 14 13 9 6 1 3 6 4 6 6 6 7 5 8 11 5 4 6 7 5 5 5 5 6 5 3 2 6 6 4 3 5 5 3 1 1 6 9 10 11 9 8 8 8 8 7 6
70 67 65 69 59 40 34 35 30 29 41 47 41 38 29 15 8 5 6 5 3 4 5 4 7 10 11 10 5 0 2 3 3 6 5 3 4 2 2 6 8 11 10 7 6 4 2 1 1 3 4 4 5 3 5 8 7 8 8 7 7 6 5 3 3 4 3 3 7 6 4 2 3 5 4 4 4 7 7 6 7 7 8 8 7 6 6 5
69 68 70 65 46 37 32 19 26 43 48 48 41 30 18 6 2 7 7 5 5 4 4 5 7 12 17 16 9 7 5 1 5 11 9 4 3 3 3 6 5 7 8 7 7 4 3 0 2 2 2 2 3 3 1 3 7 9 6 5 5 3 4 3 4 2 3 5 6 4 2 3 4 5 4 5 6 6 7 7 8 9 9 8 7 6 6 5
65 69 73 59 42 41 33 22 38 53 51 49 37 17 9 4 2 4 6 6 6 6 7 10 11 14 18 15 9 11 8 4 9 14 13 8 6 7 8 7 7 7 9 10 8 4 3 2 2 3 2 3 3 2 3 2 5 6 6 7 6 1 1 2 2 1 4 5 3 2 1 2 5 7 7 8 9 8 7 7 7 8 9 9 8 7 6 5
64 69 66 51 40 37 36 42 51 54 52 46 25 7 6 7 6 6 7 7 7 9 11 13 15 18 21 15 9 10 8 6 12 14 12 9 6 8 7 7 9 7 6 9 8 6 4 4 3 2 2 2 4 4 3 4 5 6 8 8 6 4 4 5 4 1 3 4 2 1 1 2 4 5 8 10 10 8 6 6 6 7 9 9 8 7 5 5
67 64 52 42 38 36 44 53 53 54 51 33 14 8 7 6 6 8 10 8 7 12 13 14 18 19 19 15 11 14 9 6 13 14 11 8 6 9 8 8 11 6 5 8 7 7 7 4 3 4 2 1 2 4 4 6 5 3 4 6 6 5 5 5 4 3 3 2 2 2 1 4 4 3 6 7 7 6 4 5 4 3 4 5 5 5 5 5
63 53 40 36 36 40 51 55 53 56 42 18 10 9 8 7 5 7 10 7 8 12 13 15 18 17 14 8 7 11 7 5 11 12 10 11 9 11 10 9 13 8 7 8 5 6 9 4 2 2 2 0 1 3 1 7 6 3 2 6 5 5 5 3 3 5 5 1 1 2 3 4 4 5 6 3 5 5 3 4 2 2 3 6 5 5 6 5
49 38 34 34 36 43 52 52 52 51 30 11 11 10 8 8 5 7 10 11 14 17 17 15 12 12 11 5 3 8 4 3 10 9 8 10 8 11 11 8 12 13 10 7 3 5 8 3 3 3 1 0 1 3 2 2 5 2 3 5 5 3 8 6 2 1 4 2 2 2 3 5 3 5 6 5 5 6 4 4 1 2 3 6 6 5 5 5
33 25 24 26 35 46 52 52 49 41 20 9 12 11 6 4 3 7 11 15 19 22 21 15 9 11 11 7 7 10 4 4 9 8 7 8 6 10 12 7 11 16 12 7 3 4 5 2 3 1 1 2 1 1 2 1 4 4 3 6 3 3 5 5 3 2 3 2 4 1 4 4 1 3 6 6 6 8 6 4 2 3 4 6 6 6 6 6
28 21 14 19 37 48 51 52 43 26 12 8 11 8 2 1 2 6 11 15 19 20 18 12 9 11 12 12 12 13 10 8 10 9 8 8 5 9 14 8 7 13 11 8 4 3 4 2 3 1 1 3 3 1 1 2 2 3 4 4 4 3 2 2 3 2 2 3 4 2 3 3 4 5 4 4 9 10 7 5 5 6 7 7 6 6 6 5
25 15 6 17 40 47 50 48 30 12 8 11 11 7 2 1 3 7 14 17 18 17 14 12 11 10 11 14 14 15 14 11 13 10 8 9 5 7 15 9 6 11 11 10 6 3 4 4 2 2 1 3 3 2 3 2 2 2 2 2 2 3 5 3 3 4 4 4 3 2 1 3 6 6 6 9 11 10 8 7 8 10 9 8 7 7 7 6
15 8 4 23 42 44 45 35 16 8 10 11 9 5 2 2 4 11 18 18 14 10 9 14 15 12 11 11 11 13 10 8 14 10 5 8 4 5 11 10 7 9 9 10 9 3 3 4 2 2 3 0 1 1 4 5 2 2 2 3 2 1 2 2 1 3 4 4 3 2 1 5 6 5 8 11 9 8 9 10 10 9 9 9 8 7 7 7
8 7 5 27 43 43 35 19 7 9 8 8 6 3 3 2 7 13 16 17 11 3 5 14 16 13 13 11 10 11 7 5 11 9 3 7 7 4 7 9 10 9 7 8 9 4 2 3 4 2 0 2 4 3 2 3 2 2 3 5 5 3 4 3 3 1 2 3 4 4 2 7 6 4 7 9 5 4 6 8 8 8 9 9 8 8 8 7
7 7 10 34 50 42 24 9 7 8 6 7 5 3 3 5 9 13 13 12 7 3 4 9 10 11 12 12 12 11 8 6 10 9 4 7 9 5 6 9 12 12 9 6 6 4 3 4 4 2 3 4 5 4 2 2 2 1 3 4 4 3 5 6 6 3 2 2 2 4 2 6 6 4 6 6 5 4 5 7 8 8 8 8 7 7 7 7
6 7 16 40 52 38 16 7 8 7 5 6 2 4 3 5 9 12 10 8 5 4 5 6 8 10 8 9 11 11 10 7 8 9 4 4 7 4 7 12 14 13 10 6 5 5 3 4 4 1 2 2 4 5 2 0 0 1 4 2 3 3 3 5 5 4 4 4 3 3 2 6 6 3 3 5 5 5 5 7 8 7 6 7 8 7 7 7
8 7 10 28 39 28 12 8 11 10 9 8 6 6 2 4 9 13 12 9 5 6 8 7 9 11 9 10 13 15 14 7 5 7 4 5 7 2 5 14 15 14 10 6 7 6 2 3 4 4 2 1 2 3 3 3 3 3 3 1 2 4 6 4 2 3 3 4 5 5 4 7 6 4 3 4 5 6 6 6 7 7 6 7 7 7 7 7
10 6 3 10 17 15 6 3 7 11 12 12 11 8 3 3 4 8 13 10 3 5 8 6 7 8 8 10 11 13 14 7 5 6 3 4 4 2 3 13 16 14 10 7 9 7 3 4 5 6 7 7 7 7 5 4 3 1 1 1 3 5 7 5 2 4 3 4 5 6 5 6 7 7 6 5 5 6 6 4 5 6 6 7 7 7 7 7
10 6 5 5 4 6 3 1 4 10 12 11 9 6 6 7 1 0 8 7 1 5 6 4 7 9 8 11 11 10 11 4 4 7 6 6 4 2 3 10 11 11 10 12 13 8 4 3 6 9 11 11 8 5 5 7 5 4 5 5 6 7 7 5 3 3 5 3 3 6 6 6 8 7 6 7 5 6 6 3 5 6 6 7 7 7 7 7
6 7 10 8 5 7 3 1 5 10 10 8 6 4 8 11 6 1 3 2 3 6 6 4 9 10 11 15 12 10 10 5 5 9 8 6 3 0 1 4 5 6 9 11 10 7 5 4 8 11 11 8 8 8 9 12 11 12 12 10 10 9 8 7 6 8 6 5 6 9 7 8 9 7 6 8 6 6 7 6 7 6 6 6 5 6 6 7
3 4 5 2 4 11 10 8 12 14 11 7 3 4 9 12 12 8 3 1 3 6 4 4 11 16 19 18 13 10 10 6 6 9 8 5 4 3 2 2 2 2 6 9 7 5 5 6 7 8 5 1 4 8 11 12 13 14 16 17 14 11 10 11 12 10 7 6 11 11 9 10 9 6 8 9 7 7 7 6 4 4 6 6 7 7 8 8
3 3 0 4 2 8 11 12 16 16 13 7 3 5 11 15 13 7 3 4 5 4 4 9 14 17 20 18 13 12 12 11 9 9 8 8 7 7 5 3 1 1 4 8 5 3 4 5 4 6 5 3 2 3 8 10 9 8 11 14 13 12 14 15 15 13 10 10 13 8 6 8 8 8 10 8 5 5 3 3 4 6 7 8 9 9 10 10
3 2 1 2 3 6 9 10 13 14 9 5 3 5 9 14 13 5 1 5 10 6 5 13 17 16 18 17 14 14 18 19 17 14 13 12 9 8 7 5 4 2 3 5 4 1 2 3 2 5 5 2 5 2 5 6 6 6 8 9 10 12 14 15 16 13 9 9 11 6 6 10 7 7 9 5 2 2 2 4 6 7 8 9 10 10 11 12
2 0 1 4 5 7 10 8 8 10 7 4 4 5 7 12 11 7 3 1 7 8 6 12 16 12 13 15 15 16 17 15 16 16 16 16 12 8 4 5 8 9 5 3 3 2 3 2 2 5 5 2 4 3 3 3 2 3 7 8 11 13 12 12 11 9 8 10 11 8 9 10 5 5 7 5 4 5 5 8 8 6 7 10 11 12 13 13
2 1 2 4 4 4 8 7 7 9 7 3 4 3 5 9 8 9 6 4 3 5 7 14 16 10 10 14 15 13 10 8 10 9 8 9 8 5 4 6 10 11 9 5 3 2 5 5 3 4 5 3 4 1 4 6 3 5 9 11 15 13 11 9 7 9 11 11 10 10 10 7 4 5 7 5 5 6 9 9 7 6 7 9 11 12 13 14
Wind_Direction
222 218 221 218 209 210 203 198 200 196 194 194 193 190 189 190 191 193 193 193 193 190 190 193 193 193 193 194 195 198 202 198 195 194 198 214 213 204 191 188 222 244 228 309 341 330 318 346 354 351 356 357 350 342 325 293 59 67 97 132 214 199 201 193 175 192 179 178 186 203 190 134 144 174 145 54 54 84 70 29 11 8 34 152 153 154 159 160
222 218 219 218 211 211 205 200 201 196 194 194 193 191 189 189 191 192 192 191 191 190 188 189 191 191 190 190 191 195 196 192 194 202 207 212 214 211 205 196 176 245 225 214 19 34 26 1 353 353 0 355 324 332 333 295 89 116 123 149 215 204 207 204 182 197 175 168 175 181 182 152 156 166 139 108 113 114 88 18 1 47 56 103 135 149 159 160
225 220 219 217 212 211 207 203 201 198 197 196 193 192 190 189 189 190 190 190 190 189 187 187 189 188 188 184 181 185 179 170 193 222 214 208 213 214 213 215 212 221 219 163 86 67 59 6 354 2 7 343 301 293 352 299 233 172 128 166 233 216 223 231 188 208 213 168 158 172 184 162 169 165 127 130 148 148 139 161 107 113 130 126 142 154 160 160
231 224 218 215 214 211 208 205 201 197 199 198 194 193 191 189 188 188 188 188 189 189 187 186 187 187 186 180 175 172 153 132 221 221 211 204 209 214 212 217 216 217 223 198 154 88 66 29 11 8 6 329 301 325 306 254 238 196 150 190 230 208 231 246 206 225 237 176 157 156 143 158 188 161 127 134 131 213 213 201 178 163 159 147 155 161 163 164
234 226 218 215 215 212 206 204 200 195 197 197 196 194 191 189 188 187 187 187 187 186 186 185 186 186 186 182 175 162 135 115 226 203 207 204 204 210 210 211 210 208 206 190 184 94 46 37 30 10 360 297 305 350 254 240 151 198 223 212 213 162 226 258 259 191 173 151 140 140 145 164 169 116 148 147 147 222 215 207 191 165 159 158 161 164 166 167
237 228 220 213 214 214 206 201 197 194 195 195 195 194 191 189 187 186 186 185 184 185 185 185 185 184 184 182 176 165 153 184 196 171 195 202 203 205 205 205 203 203 197 171 149 101 50 42 43 3 330 313 285 264 261 272 154 208 269 243 218 179 215 281 10 184 150 137 149 158 163 145 128 135 174 165 181 230 205 181 176 165 161 158 158 163 167 172
240 232 222 212 210 212 205 200 197 193 193 193 193 193 192 189 186 185 185 183 182 183 183 183 183 181 178 174 171 173 184 217 160 159 181 192 201 200 199 201 198 199 193 162 133 104 76 70 66 354 306 301 267 245 262 292 220 212 258 267 236 185 212 296 9 199 160 156 176 158 136 141 150 152 156 195 219 253 240 157 156 157 155 154 158 167 172 176
244 236 227 216 210 208 202 198 197 193 192 192 190 192 192 189 185 182 182 182 180 180 181 181 180 176 171 164 160 181 211 218 209 170 176 181 188 190 190 190 192 194 185 169 150 130 112 109 149 176 284 267 243 264 269 277 272 217 235 251 205 192 244 311 22 138 159 164 157 121 130 157 177 152 141 206 228 276 291 141 145 148 152 161 167 172 175 178
248 237 229 220 211 206 201 199 198 193 192 191 189 191 191 188 184 180 180 181 178 178 179 178 177 172 169 160 147 191 205 212 215 190 174 178 179 184 186 182 183 186 177 172 160 148 141 157 188 173 253 275 272 285 275 238 251 216 219 213 158 280 280 329 64 136 152 167 144 124 125 141 228 190 154 210 219 261 119 138 144 148 158 173 175 176 177 179
251 239 229 221 212 209 204 199 198 195 192 192 191 190 190 187 183 178 177 177 176 176 176 177 174 167 166 157 149 196 201 203 207 194 174 180 180 181 186 183 179 178 170 164 160 154 153 173 169 132 281 292 282 272 248 214 236 208 199 156 126 38 316 345 108 176 143 123 170 136 135 235 326 299 191 229 216 134 123 139 152 155 167 179 180 183 181 184
251 241 229 223 214 208 204 199 197 197 193 192 192 190 190 187 182 177 176 176 174 173 174 173 169 165 163 159 173 199 178 185 196 195 181 181 183 181 183 184 179 177 170 161 168 173 174 172 143 38 288 278 292 281 249 221 237 191 153 104 39 27 355 331 145 206 150 102 175 127 116 331 358 360 216 214 176 151 139 148 164 166 175 182 182 188 185 192
250 243 229 225 218 204 199 199 197 196 192 191 192 190 189 187 181 177 176 175 173 172 172 169 167 164 156 160 198 186 162 172 181 190 188 180 181 183 184 184 182 181 177 166 170 183 184 168 124 133 238 324 324 297 266 242 240 190 160 137 330 13 342 233 183 224 162 144 195 133 94 318 281 230 246 201 151 153 148 155 172 176 180 183 183 188 191 199
249 243 230 225 221 206 196 196 195 193 190 189 190 188 189 186 179 177 174 170 170 170 168 166 167 162 152 162 192 163 162 162 162 170 177 177 174 174 178 181 181 185 187 178 172 183 188 173 147 217 255 317 291 270 292 305 191 181 172 152 136 39 290 237 209 235 156 158 236 151 160 263 241 237 262 188 147 143 153 169 180 184 184 185 186 188 197 201
253 243 229 221 218 206 196 194 193 191 187 186 187 186 186 182 177 176 170 164 166 168 166 164 165 159 151 157 143 157 164 158 156 155 161 171 163 157 171 178 180 186 189 176 164 178 188 181 185 255 263 227 252 277 300 309 182 151 152 167 152 159 255 253 199 164 155 192 25 113 178 254 245 253 265 194 162 154 168 184 185 192 194 189 191 190 197 202
258 244 228 221 215 205 196 193 192 189 185 184 182 183 180 175 171 170 165 161 163 164 161 160 161 151 136 167 151 166 168 164 164 154 154 165 159 151 168 175 181 183 182 167 151 164 181 181 205 254 265 236 241 270 288 297 242 167 158 211 202 175 246 283 221 176 164 218 45 114 186 264 257 263 255 175 170 169 173 190 196 201 203 195 197 193 198 208
258 244 227 220 216 208 197 191 191 186 183 181 180 180 174 165 162 162 160 157 156 158 153 152 154 143 129 164 153 166 171 174 172 162 157 163 162 155 155 157 161 165 163 158 148 152 178 193 221 233 253 258 236 227 254 282 251 241 165 183 202 177 209 281 241 216 182 164 5 142 184 250 276 276 243 157 171 180 176 198 206 209 212 202 199 197 198 205
254 243 226 217 214 207 196 191 188 182 180 178 174 175 168 158 155 155 155 152 150 148 142 137 139 131 104 120 141 171 175 175 176 175 168 165 165 151 143 137 133 142 131 121 142 173 192 184 209 235 231 235 230 191 213 236 217 230 122 146 202 180 174 197 239 246 188 171 205 185 194 229 265 289 251 179 168 179 190 208 212 213 217 210 204 202 201 202
248 240 223 214 211 202 194 189 183 178 176 173 170 170 163 153 150 145 141 140 136 131 128 127 134 136 221 169 160 167 163 170 179 186 180 171 168 154 143 135 137 135 121 105 145 175 156 89 255 248 238 219 221 192 199 223 193 177 157 143 174 166 172 192 216 207 158 171 199 173 226 247 260 291 258 219 170 178 208 215 216 219 217 217 210 204 206 206
242 237 218 211 206 194 188 185 181 176 172 169 163 155 145 138 137 134 132 134 133 127 132 160 159 161 203 166 155 140 157 165 167 180 182 175 168 157 143 135 140 129 121 117 146 154 138 155 239 229 228 219 216 199 196 207 175 169 168 146 152 164 210 215 231 247 165 153 199 189 213 235 246 265 244 233 188 185 226 241 238 233 224 221 215 212 213 210
239 231 212 207 201 189 182 181 178 171 166 159 148 136 128 128 118 119 139 145 152 103 129 170 173 77 85 138 137 127 145 156 152 169 176 173 163 152 137 122 117 102 126 135 151 166 173 207 231 224 218 219 210 196 194 197 172 164 151 138 164 173 215 232 242 290 146 152 216 206 213 236 241 246 237 223 192 206 236 244 243 238 225 220 215 216 216 216
234 222 207 201 196 187 179 176 173 167 163 155 148 140 146 151 136 162 166 147 128 41 127 159 142 67 101 130 140 133 130 146 155 171 171 169 157 144 139 135 128 122 136 133 145 184 219 222 230 225 210 202 198 198 201 199 162 154 153 150 177 186 207 239 238 305 8 165 238 199 209 249 243 243 250 186 177 220 224 221 232 230 224 222 215 220 221 224
227 214 200 195 192 185 177 173 171 166 160 156 155 155 167 162 143 156 149 118 83 34 136 155 108 62 98 116 142 136 120 139 154 177 176 171 162 151 151 150 145 138 137 138 150 189 221 232 229 220 201 189 195 203 205 208 181 166 152 145 173 200 200 304 310 330 13 185 256 186 193 244 250 248 260 222 198 223 221 213 221 216 213 216 211 218 221 225
217 203 193 191 188 180 174 173 170 163 160 163 164 154 163 160 132 136 125 87 97 38 120 151 83 59 104 121 150 134 122 155 161 177 182 174 167 157 153 152 150 143 151 170 182 187 204 228 225 210 192 190 202 214 208 211 204 189 152 150 185 195 167 198 268 325 27 126 201 155 183 260 277 283 272 241 215 235 234 221 229 221 209 212 213 216 212 212
203 193 189 188 182 176 173 170 166 163 164 167 160 143 147 142 137 134 113 66 117 39 87 127 65 123 128 119 152 145 137 165 168 173 180 174 157 149 155 154 151 157 173 183 189 200 220 241 220 198 202 198 199 218 211 194 222 239 185 170 180 184 186 182 159 123 24 356 96 111 50 303 272 251 258 249 210 241 244 223 241 245 227 225 234 231 217 211
191 188 185 183 179 173 168 165 166 165 164 162 144 139 143 142 142 134 111 72 98 34 113 147 180 171 153 108 129 143 131 161 175 172 179 174 155 147 157 157 157 172 178 182 191 209 235 247 205 190 207 203 198 214 208 182 203 260 224 197 188 183 185 140 124 108 83 275 269 117 89 291 286 248 245 251 202 234 238 214 233 241 233 229 229 228 222 221
185 184 181 180 177 168 162 163 168 161 157 157 148 145 145 145 142 129 107 63 109 120 155 178 206 163 161 139 120 111 100 160 161 156 174 177 163 157 159 157 164 178 170 177 198 201 228 242 205 195 202 197 204 218 206 175 170 235 237 204 189 175 160 141 143 130 136 218 277 99 165 253 308 280 250 256 236 243 258 242 240 239 231 225 219 222 218 217
180 180 178 177 172 164 161 160 161 158 157 164 152 147 149 150 148 131 95 76 158 156 151 199 233 163 165 159 140 136 132 151 114 150 183 182 162 163 170 162 155 173 164 169 205 192 205 224 225 209 201 193 204 218 205 169 157 223 242 175 164 163 161 159 158 157 173 192 333 29 138 222 280 268 267 267 228 253 265 250 248 240 229 226 225 227 219 212
178 176 175 173 169 168 167 156 158 162 162 156 148 147 154 157 155 127 99 155 164 133 137 170 151 152 148 95 126 134 100 145 139 173 190 185 171 165 178 176 160 168 171 174 196 184 191 213 224 208 201 201 205 209 186 159 159 227 209 141 153 161 162 163 157 148 107 136 256 288 153 191 260 273 305 5 198 254 251 236 238 234 223 222 225 226 223 222
175 174 173 169 168 170 167 159 160 156 147 147 145 150 156 152 137 85 162 180 136 120 141 139 139 142 123 103 124 29 59 154 163 160 163 191 208 194 185 179 157 164 177 187 196 208 202 208 213 197 206 213 207 206 175 165 180 196 129 94 78 83 96 121 138 123 87 155 223 232 185 188 263 278 310 30 213 244 240 236 234 226 220 218 222 223 221 223
173 173 170 164 164 163 155 154 153 142 144 146 146 149 147 131 119 149 200 181 123 135 146 148 163 153 138 137 145 106 142 165 135 132 150 201 205 244 208 155 138 157 175 197 211 240 267 172 142 189 217 221 188 172 179 180 167 134 106 80 69 51 47 57 65 92 113 237 244 234 202 174 259 274 240 201 221 219 216 243 240 223 225 223 222 218 207 203
171 171 168 163 162 155 146 143 144 144 145 145 142 140 131 103 144 172 181 159 120 134 144 146 151 143 146 150 156 179 196 187 138 153 175 197 181 202 181 142 128 143 163 193 217 255 323 106 215 230 220 216 151 112 82 185 156 124 107 110 101 26 18 38 360 55 168 241 257 255 224 157 219 259 241 236 258 233 203 224 226 213 219 218 212 210 200 190
169 168 166 164 161 156 150 145 145 146 146 143 138 134 132 135 230 176 162 152 147 169 163 149 150 148 151 151 154 176 186 180 167 168 175 181 186 195 187 174 161 148 170 188 190 213 262 238 270 309 237 187 160 126 74 159 175 129 126 140 129 66 42 164 256 229 212 242 265 260 192 189 233 250 254 259 265 252 226 227 224 211 213 209 201 200 197 187
165 163 162 161 159 154 148 143 143 144 145 142 136 136 154 166 186 159 151 165 168 172 161 151 155 154 151 149 159 179 186 190 178 173 175 176 177 198 213 201 174 155 165 170 165 184 229 277 286 286 264 198 173 180 159 177 194 157 150 155 151 140 149 197 231 279 235 245 279 282 211 246 269 266 254 250 254 257 251 251 245 222 212 203 192 185 182 184
162 159 156 155 152 149 145 143 145 145 143 139 137 156 170 183 179 147 155 175 157 153 156 150 149 151 155 157 162 172 178 191 177 166 168 174 177 196 215 209 186 155 113 151 171 184 190 229 222 186 213 279 194 216 182 152 163 187 157 139 153 160 160 193 207 187 206 237 294 291 213 191 203 248 248 246 263 276 282 283 268 228 200 168 155 157 165 182
158 154 147 141 141 146 147 145 146 146 143 140 147 159 177 184 173 157 163 160 139 142 144 142 141 147 160 159 158 176 178 175 175 167 171 183 189 190 194 197 187 162 136 164 180 182 188 222 278 236 241 145 219 269 194 133 155 228 121 122 169 177 146 147 177 175 168 145 267 236 227 209 206 269 278 283 297 294 331 354 40 117 133 134 145 167 171 181
149 145 140 135 136 145 149 147 145 146 145 144 153 170 194 189 183 175 164 151 149 146 136 138 145 148 157 143 154 200 219 159 168 169 180 194 201 196 192 190 183 175 165 162 156 174 183 205 323 322 316 104 213 260 295 160 178 174 119 171 215 154 116 117 162 110 98 144 243 207 241 290 306 292 308 344 318 297 327 353 50 163 167 159 170 181 178 182
141 140 137 133 140 147 150 150 148 147 149 154 166 179 188 206 208 168 157 149 148 146 140 146 161 155 156 152 171 198 202 142 168 176 179 189 207 203 197 197 187 183 175 150 153 191 163 151 330 21 143 260 250 211 320 348 141 126 156 196 191 109 95 107 142 18 56 192 268 235 211 275 271 254 320 337 289 271 269 278 261 221 205 194 194 190 188 186
136 134 127 132 144 148 151 154 153 150 154 166 183 192 159 276 226 148 146 144 141 145 146 150 161 162 163 161 173 188 175 162 180 185 177 184 215 199 188 194 191 184 174 143 153 206 149 144 303 18 187 285 345 84 267 340 91 133 173 166 119 139 180 113 148 167 155 209 282 299 237 247 198 216 286 267 240 243 240 235 235 223 211 206 205 201 198 187
133 127 105 141 147 147 151 157 156 145 159 171 186 202 167 177 209 149 147 146 143 150 153 154 156 161 171 167 167 177 179 175 176 179 184 189 225 210 186 182 179 181 176 158 168 208 150 145 266 304 302 309 359 49 191 225 354 33 93 126 95 139 172 173 158 161 174 203 244 287 287 254 227 215 217 225 227 222 212 212 220 216 208 205 201 195 194 188
137 119 99 146 148 150 150 151 148 148 174 179 180 202 195 171 176 158 155 151 148 154 159 160 157 153 165 168 162 171 177 173 172 180 197 182 197 232 195 180 170 171 169 168 176 183 147 149 197 301 344 351 197 236 196 194 184 83 114 175 189 57 119 156 124 126 141 165 190 195 258 259 249 208 202 222 227 211 204 210 219 215 205 206 202 192 190 188
138 113 120 148 149 149 144 137 155 169 174 174 174 237 261 159 152 160 163 156 146 130 141 157 160 155 157 159 162 171 162 146 172 180 188 178 179 214 200 177 158 152 149 171 183 178 166 161 154 168 328 184 231 271 220 211 217 165 185 191 183 135 112 155 236 237 123 145 172 163 215 265 259 199 208 229 229 215 213 213 222 219 204 205 203 193 190 185
127 116 139 149 149 149 144 145 177 166 168 172 179 248 212 154 151 160 169 162 143 75 99 144 157 151 155 161 162 168 157 145 176 179 174 187 179 182 193 165 150 158 160 165 181 159 119 114 114 154 210 209 248 272 196 215 279 251 220 194 172 154 132 159 209 223 153 154 147 126 164 272 263 212 215 241 248 247 229 214 220 220 206 203 198 190 189 185
113 108 133 148 153 154 153 165 163 153 176 179 234 280 205 161 155 158 169 171 153 125 122 136 152 152 162 163 152 160 163 156 177 174 148 174 185 201 191 163 150 162 167 159 173 160 113 109 107 77 302 314 311 320 351 161 211 248 241 190 153 183 150 155 185 179 162 175 151 128 216 268 275 262 236 253 265 263 247 224 215 213 204 198 192 186 185 180
113 99 120 150 159 162 162 171 167 168 176 179 221 251 226 156 160 163 170 172 159 143 142 150 162 161 164 160 158 167 169 161 179 179 147 163 186 225 189 171 160 166 179 180 174 168 148 148 133 122 116 13 324 294 280 228 186 204 241 222 138 119 103 115 136 107 160 204 164 158 223 252 273 313 309 291 297 282 259 232 210 203 196 194 188 183 183 174
123 100 79 145 162 169 176 189 168 166 168 179 200 211 185 149 173 171 166 164 149 129 137 148 151 139 138 148 153 166 170 163 166 174 147 149 174 331 202 183 176 176 182 161 149 148 147 163 149 145 171 190 198 206 209 194 177 201 232 194 168 140 137 166 149 112 205 232 158 167 217 249 277 313 316 304 304 282 265 231 211 210 193 189 185 179 180 174
132 125 124 119 148 175 185 350 141 160 169 179 196 204 166 151 144 354 151 158 170 113 111 121 121 105 123 142 139 161 177 159 120 155 156 154 169 304 218 189 186 182 164 145 146 140 122 173 182 180 194 198 186 177 151 134 140 209 213 188 190 192 177 160 123 158 199 179 180 215 208 220 257 276 283 284 274 262 268 230 211 217 198 191 186 175 176 175
125 143 149 140 147 171 188 5 150 167 176 179 192 201 163 150 147 107 112 159 187 130 92 109 137 136 152 154 148 166 171 124 107 152 157 152 155 15 149 162 167 162 144 148 160 139 118 203 199 193 208 200 173 174 166 157 174 199 203 198 200 199 178 166 194 211 178 143 232 243 199 202 237 235 237 256 247 242 254 235 216 207 185 176 163 157 167 174
114 143 159 137 150 172 183 180 173 175 177 180 188 171 158 154 156 160 138 47 162 143 101 133 163 164 164 162 157 160 158 132 140 161 155 146 143 119 103 113 136 154 145 159 176 146 146 202 196 184 203 175 164 185 179 177 188 194 198 202 199 188 177 190 214 212 163 170 234 232 188 203 233 220 222 233 218 220 235 222 194 165 153 151 151 163 176 181
90 104 106 355 54 160 158 153 161 169 177 184 178 166 166 162 159 161 137 115 148 172 148 159 175 172 165 164 156 154 165 162 167 179 166 153 153 143 139 153 175 7 134 155 177 171 170 193 178 161 152 68 14 214 189 188 192 193 203 203 193 186 188 198 215 213 189 206 236 235 209 229 234 218 228 238 222 229 233 148 151 162 163 163 167 178 188 192
94 110 134 70 83 112 108 120 149 166 184 194 174 185 175 162 158 149 79 144 162 182 172 163 172 170 164 166 163 172 184 178 172 177 160 148 162 167 165 174 161 103 102 144 166 168 161 182 146 122 129 49 354 347 190 196 190 195 212 204 189 195 202 208 218 215 203 227 250 262 266 263 245 211 231 247 192 171 162 178 196 192 175 171 177 189 197 202
96 211 132 116 110 114 117 121 144 163 188 199 181 194 174 164 162 141 63 35 154 158 163 157 157 157 161 171 180 185 188 176 166 168 161 156 165 168 169 176 160 146 134 142 154 117 107 125 81 98 141 225 344 30 152 143 110 232 239 213 194 198 206 213 218 205 191 219 239 245 251 256 234 189 224 227 155 159 204 219 218 206 180 177 187 197 204 208
24 7 51 93 80 95 128 129 143 168 192 198 173 180 160 164 168 142 119 8 42 123 142 143 143 147 163 181 194 189 170 147 142 149 149 141 131 113 116 143 150 150 148 146 142 126 128 128 117 129 162 225 319 334 141 110 96 257 246 209 197 201 204 209 224 222 208 206 214 225 235 231 186 186 216 206 171 200 227 227 214 203 193 191 199 205 209 212